S-NET D (43186 NORAD) Tracking and Keplerian Element Data

This shows tracking and keplerian element data for the satellite.

Feedback or suggestion? Click here.




ElementValue
Catalog43186
NameS-NET D
Epoch Orbit5301
Epoch Day21.79940337
Epoch Year2019
RAAN292.3323
Inclination97.7176
Eccentricity0.0011851
Argument of Perigee135.7591
Mean Anonmoly224.458
Mean Motion14.96566782
Decay Rate-1.93E-06
L11 43186U 18014G 19021.79940337 -.00000193 00000-0 -11892-4 0 9991
L22 43186 97.7176 292.3323 0011851 135.7591 224.4580 14.96566782 53010

Live tracking and technical data element details for S-NET D (NORAD 43186). S-NET D can be tracked NOW for your location showing map with azimuth and elevation plus other details from your city location.

Track the satellite on the map from your city or location and see movement details for azimuth, elevation, latitude, longitude, range, height, and movement on the map or in text.







IsCatalogInMostPopularTable: catalog: 43186, numindb: 175
Update: records affected: 1



GetName: 43186 S-NET D

Hit Count: updated at: Tue, 22 Jan 2019 10:40:29 GMT